QPF
0.00 0.00 0.00 0.00 0.00 0.00 0.00 0.00 0.00 0.00 0.00 0.00 0.00 0.00 0.00 0.00 0.00 0.00 0.00 0.00 0.00 0.00 0.00 0.00 0.00 0.00 0.00 0.00 0.00 0.00 0.00 0.00 0.00 0.00 0.00 0.00 0.00 0.00
0.00 0.00 0.00 0.00 0.00 0.00 0.00 0.00 0.00 0.00 0.00 0.00 0.00 0.00 0.00 0.00 0.00 0.00 0.00 0.00 0.00 0.00 0.00 0.00 0.00 0.00 0.00 0.00 0.00 0.00 0.00 0.00 0.00 0.00 0.00 0.00 0.00 0.00
0.00 0.00 0.00 0.00 0.00 0.00 0.00 0.00 0.00 0.00 0.00 0.00 0.00 0.00 0.00 0.00 0.00 0.00 0.00 0.00 0.00 0.00 0.00 0.00 0.00 0.00 0.00 0.00 0.00 0.00 0.00 0.00 0.00 0.00 0.00 0.00 0.00 0.00
0.01 0.00 0.00 0.00 0.00 0.00 0.00 0.00 0.00 0.00 0.00 0.00 0.00 0.00 0.00 0.00 0.00 0.00 0.00 0.00 0.00 0.00 0.00 0.00 0.00 0.00 0.00 0.00 0.00 0.00 0.00 0.00 0.00 0.00 0.00 0.00 0.00 0.00
0.16 0.08 0.03 0.00 0.00 0.00 0.00 0.00 0.00 0.00 0.00 0.00 0.00 0.00 0.00 0.00 0.00 0.00 0.00 0.00 0.00 0.00 0.00 0.00 0.00 0.00 0.00 0.00 0.00 0.00 0.00 0.00 0.00 0.00 0.00 0.00 0.00 0.00
0.13 0.11 0.07 0.03 0.01 0.00 0.00 0.00 0.00 0.00 0.00 0.00 0.00 0.00 0.00 0.00 0.00 0.00 0.00 0.00 0.00 0.00 0.00 0.00 0.00 0.00 0.00 0.00 0.00 0.00 0.00 0.00 0.00 0.00 0.00 0.00 0.00 0.00
0.06 0.06 0.04 0.03 0.01 0.00 0.00 0.00 0.00 0.00 0.00 0.00 0.00 0.00 0.00 0.00 0.00 0.00 0.00 0.00 0.00 0.00 0.00 0.00 0.00 0.00 0.00 0.00 0.00 0.00 0.00 0.00 0.00 0.00 0.00 0.00 0.00 0.00
0.04 0.04 0.05 0.05 0.02 0.01 0.00 0.00 0.00 0.00 0.00 0.00 0.00 0.00 0.00 0.00 0.00 0.00 0.00 0.00 0.00 0.00 0.00 0.00 0.00 0.00 0.00 0.00 0.00 0.00 0.00 0.00 0.00 0.00 0.00 0.00 0.00 0.00
0.05 0.04 0.03 0.03 0.04 0.03 0.03 0.03 0.03 0.02 0.02 0.02 0.01 0.01 0.00 0.00 0.00 0.00 0.00 0.00 0.00 0.00 0.00 0.00 0.00 0.00 0.00 0.00 0.00 0.00 0.00 0.00 0.00 0.00 0.00 0.00 0.00 0.00
0.02 0.03 0.03 0.04 0.04 0.05 0.06 0.08 0.07 0.05 0.04 0.02 0.01 0.00 0.00 0.00 0.00 0.00 0.00 0.00 0.00 0.00 0.00 0.00 0.00 0.00 0.00 0.00 0.00 0.00 0.00 0.00 0.00 0.00 0.00 0.00 0.00 0.00
0.01 0.02 0.03 0.05 0.07 0.07 0.05 0.04 0.03 0.02 0.01 0.01 0.01 0.01 0.00 0.00 0.00 0.00 0.00 0.00 0.00 0.00 0.00 0.00 0.00 0.00 0.00 0.00 0.00 0.00 0.00 0.00 0.00 0.00 0.00 0.00 0.00 0.00
0.04 0.04 0.03 0.03 0.04 0.02 0.02 0.01 0.01 0.01 0.01 0.01 0.00 0.00 0.00 0.00 0.00 0.00 0.00 0.00 0.00 0.00 0.00 0.00 0.00 0.00 0.00 0.00 0.00 0.00 0.00 0.00 0.00 0.00 0.00 0.00 0.00 0.00
0.05 0.05 0.03 0.04 0.02 0.00 0.00 0.00 0.00 0.00 0.00 0.00 0.00 0.00 0.00 0.00 0.00 0.00 0.00 0.00 0.00 0.00 0.00 0.00 0.00 0.00 0.00 0.00 0.00 0.00 0.00 0.00 0.00 0.00 0.00 0.00 0.00 0.00
0.02 0.02 0.02 0.04 0.01 0.00 0.00 0.00 0.00 0.00 0.00 0.00 0.00 0.00 0.00 0.00 0.00 0.00 0.00 0.00 0.00 0.00 0.00 0.00 0.00 0.00 0.00 0.00 0.00 0.00 0.00 0.00 0.00 0.00 0.00 0.00 0.00 0.00
0.01 0.01 0.02 0.04 0.02 0.01 0.00 0.00 0.01 0.00 0.00 0.00 0.00 0.00 0.00 0.00 0.00 0.00 0.00 0.00 0.00 0.00 0.00 0.00 0.00 0.00 0.00 0.00 0.00 0.00 0.00 0.00 0.00 0.00 0.00 0.00 0.00 0.00
0.02 0.02 0.03 0.05 0.02 0.02 0.01 0.01 0.00 0.00 0.00 0.00 0.00 0.00 0.00 0.00 0.00 0.00 0.00 0.00 0.00 0.00 0.00 0.00 0.00 0.00 0.00 0.00 0.00 0.00 0.00 0.00 0.00 0.00 0.00 0.00 0.00 0.00
0.01 0.02 0.05 0.06 0.04 0.03 0.01 0.00 0.00 0.00 0.00 0.00 0.00 0.00 0.00 0.00 0.00 0.00 0.00 0.00 0.00 0.00 0.00 0.00 0.00 0.00 0.00 0.00 0.00 0.00 0.00 0.00 0.00 0.00 0.00 0.00 0.00 0.00
0.01 0.02 0.02 0.03 0.03 0.02 0.01 0.00 0.00 0.00 0.00 0.00 0.00 0.00 0.00 0.00 0.00 0.00 0.00 0.00 0.00 0.00 0.00 0.00 0.00 0.00 0.00 0.00 0.00 0.00 0.00 0.00 0.00 0.00 0.00 0.00 0.00 0.00
0.02 0.02 0.02 0.02 0.01 0.00 0.00 0.00 0.00 0.00 0.00 0.00 0.00 0.00 0.00 0.00 0.00 0.00 0.00 0.00 0.00 0.00 0.00 0.00 0.00 0.00 0.00 0.00 0.00 0.00 0.00 0.00 0.00 0.00 0.00 0.00 0.00 0.00
0.00 0.00 0.00 0.00 0.00 0.00 0.00 0.00 0.00 0.00 0.00 0.00 0.00 0.00 0.00 0.00 0.00 0.00 0.00 0.00 0.00 0.00 0.00 0.00 0.00 0.00 0.00 0.00 0.00 0.00 0.00 0.00 0.00 0.00 0.00 0.00 0.00 0.00
0.00 0.00 0.00 0.00 0.00 0.00 0.00 0.00 0.00 0.00 0.00 0.00 0.00 0.00 0.00 0.00 0.00 0.00 0.00 0.00 0.00 0.00 0.00 0.00 0.00 0.00 0.00 0.01 0.00 0.00 0.00 0.00 0.00 0.00 0.00 0.00 0.00 0.00
0.00 0.00 0.00 0.00 0.00 0.00 0.00 0.00 0.00 0.00 0.00 0.00 0.00 0.00 0.00 0.00 0.00 0.00 0.00 0.00 0.00 0.00 0.00 0.00 0.00 0.00 0.00 0.01 0.00 0.00 0.00 0.00 0.00 0.00 0.00 0.00 0.00 0.00
0.00 0.00 0.00 0.00 0.00 0.00 0.00 0.00 0.00 0.00 0.00 0.00 0.00 0.00 0.00 0.00 0.00 0.00 0.00 0.00 0.00 0.00 0.00 0.00 0.00 0.01 0.01 0.00 0.00 0.00 0.00 0.00 0.00 0.00 0.00 0.00 0.00 0.00
MSLP
1026.68 1026.97 1027.12 1027.65 1027.89 1028.34 1028.82 1029.53 1030.11 1031.96 1033.10 1034.01 1034.73 1034.97 1035.22 1035.37 1035.63 1035.58 1036.00 1036.12 1036.08 1036.12 1036.24 1036.44 1036.53 1036.58 1036.67 1036.69 1036.84 1036.81 1036.71 1036.58 1036.45 1036.27 1036.20 1036.09 1035.95 1035.78
1026.83 1027.21 1027.30 1027.74 1028.25 1028.58 1028.86 1029.25 1029.55 1030.12 1032.04 1033.22 1033.99 1034.82 1035.12 1035.52 1035.73 1035.77 1036.18 1036.38 1036.47 1036.56 1036.69 1036.76 1036.93 1037.07 1037.17 1037.26 1037.19 1037.23 1037.16 1037.03 1036.91 1036.68 1036.67 1036.46 1036.30 1036.14
1026.82 1027.19 1027.57 1027.82 1028.51 1028.79 1028.95 1029.25 1029.66 1030.08 1031.70 1033.15 1033.98 1034.58 1035.18 1035.62 1035.96 1036.08 1036.30 1036.59 1036.75 1036.94 1036.98 1037.01 1037.30 1037.37 1037.47 1037.62 1037.59 1037.53 1037.51 1037.35 1037.23 1037.07 1036.98 1036.85 1036.62 1036.52
1026.82 1027.33 1027.83 1028.23 1028.88 1029.07 1029.24 1029.49 1029.76 1030.14 1030.96 1032.63 1033.81 1034.57 1035.01 1035.40 1035.72 1036.03 1036.12 1036.24 1036.81 1037.10 1037.38 1037.44 1037.52 1037.57 1037.61 1037.75 1037.75 1037.75 1037.87 1037.76 1037.50 1037.38 1037.21 1037.05 1036.96 1036.77
1027.14 1027.97 1028.02 1028.44 1029.14 1029.46 1029.54 1029.77 1030.26 1030.59 1030.93 1031.84 1033.28 1034.45 1034.98 1035.33 1035.80 1036.01 1036.36 1036.34 1036.72 1037.42 1037.59 1037.56 1037.72 1037.80 1037.83 1037.86 1037.99 1037.94 1037.84 1037.77 1037.78 1037.46 1037.38 1037.22 1037.23 1037.11
1027.23 1028.25 1028.81 1029.00 1029.50 1029.15 1029.77 1029.67 1030.51 1031.09 1031.66 1032.20 1033.15 1034.27 1034.98 1035.48 1035.85 1036.05 1036.41 1036.63 1037.02 1037.16 1037.55 1037.57 1037.72 1037.91 1038.02 1038.00 1038.18 1038.14 1037.93 1037.85 1037.90 1037.64 1037.57 1037.45 1037.37 1037.28
1027.72 1028.07 1029.03 1029.39 1029.58 1029.71 1029.56 1029.84 1030.47 1031.14 1031.92 1032.62 1033.43 1034.27 1034.79 1035.21 1035.35 1035.83 1036.30 1036.52 1036.84 1037.10 1037.26 1037.23 1037.41 1037.68 1037.88 1037.88 1038.06 1038.17 1038.06 1037.87 1037.87 1037.90 1037.90 1037.75 1037.60 1037.51
1027.49 1028.24 1029.03 1029.34 1029.67 1029.84 1030.14 1030.12 1030.48 1031.00 1031.95 1032.85 1033.31 1034.02 1034.52 1034.94 1035.03 1035.41 1035.97 1036.34 1036.90 1037.09 1037.26 1037.09 1037.37 1037.57 1037.59 1037.85 1038.11 1038.18 1037.98 1037.75 1038.05 1038.10 1038.01 1037.91 1037.80 1037.70
1027.50 1028.06 1028.84 1029.31 1029.75 1030.23 1030.60 1030.85 1031.13 1031.35 1031.97 1032.83 1033.36 1033.57 1034.02 1034.30 1034.70 1035.33 1035.85 1036.07 1036.39 1037.12 1037.08 1037.19 1037.37 1037.44 1037.51 1037.54 1037.86 1038.02 1037.85 1038.09 1038.17 1038.21 1038.14 1037.98 1037.89 1037.65
1027.45 1028.29 1028.88 1029.40 1029.84 1030.45 1030.83 1031.67 1032.45 1032.66 1032.94 1033.02 1033.28 1033.32 1033.61 1034.29 1034.69 1035.22 1035.71 1036.29 1036.72 1037.25 1037.30 1037.22 1037.23 1037.37 1037.40 1037.47 1037.69 1037.81 1037.98 1038.14 1038.11 1038.09 1038.01 1037.83 1037.66 1037.42
1027.79 1028.35 1028.99 1029.78 1029.94 1030.39 1030.99 1031.85 1032.60 1033.30 1033.34 1033.40 1033.57 1033.47 1034.09 1034.51 1034.79 1035.45 1036.12 1036.57 1036.85 1037.03 1037.50 1037.56 1037.41 1037.66 1037.73 1037.54 1037.53 1037.70 1037.80 1037.88 1037.85 1037.86 1037.84 1037.58 1037.27 1037.12
1027.82 1028.36 1028.89 1029.56 1029.90 1030.45 1031.24 1031.96 1032.68 1033.26 1033.50 1034.12 1034.49 1034.69 1034.88 1035.34 1035.40 1035.57 1035.98 1036.38 1036.58 1036.97 1037.61 1037.83 1037.82 1038.21 1037.96 1037.47 1037.55 1037.50 1037.55 1037.48 1037.61 1037.60 1037.37 1037.24 1037.14 1037.21
1027.58 1028.25 1028.88 1029.24 1029.86 1030.52 1031.38 1031.92 1032.41 1033.23 1033.59 1034.22 1034.73 1035.04 1035.49 1036.00 1036.14 1036.28 1036.36 1036.41 1036.61 1037.01 1037.53 1037.77 1038.12 1038.20 1038.26 1038.02 1037.80 1037.68 1037.67 1037.59 1037.61 1037.55 1037.24 1036.90 1036.79 1036.83
1027.13 1028.00 1028.73 1029.19 1029.94 1030.58 1031.26 1031.50 1032.18 1032.96 1033.68 1034.23 1034.82 1035.16 1035.45 1035.94 1036.33 1036.50 1036.72 1036.84 1036.98 1037.15 1037.48 1037.66 1038.24 1038.29 1038.62 1038.61 1038.38 1037.73 1037.71 1037.57 1037.49 1037.30 1037.05 1036.86 1036.61 1036.48
1027.07 1027.85 1028.47 1029.25 1030.10 1030.95 1031.56 1031.67 1032.27 1033.25 1033.78 1034.42 1034.82 1035.07 1035.26 1035.72 1036.30 1036.83 1037.04 1037.27 1037.46 1037.60 1037.71 1037.99 1038.32 1038.45 1038.69 1038.92 1038.66 1038.17 1038.01 1037.50 1037.30 1037.04 1036.87 1036.70 1036.55 1036.34
1027.13 1027.95 1028.56 1029.36 1030.24 1030.97 1031.66 1032.06 1032.73 1033.24 1033.44 1033.90 1034.46 1034.96 1035.51 1035.95 1036.36 1036.65 1037.08 1037.39 1037.58 1037.61 1037.72 1038.00 1038.12 1038.38 1038.80 1038.75 1038.70 1038.34 1038.13 1037.85 1036.99 1036.91 1036.72 1036.38 1036.24 1035.95
1027.37 1028.09 1028.69 1029.32 1030.14 1030.88 1031.55 1032.03 1032.62 1032.97 1033.19 1033.62 1034.16 1034.90 1035.42 1035.83 1036.07 1036.34 1036.57 1037.04 1037.42 1037.40 1037.54 1037.93 1038.12 1038.30 1038.53 1038.63 1038.50 1038.06 1037.69 1037.38 1036.90 1036.64 1036.37 1036.15 1035.73 1035.43
1027.22 1028.03 1028.51 1029.06 1029.74 1030.31 1031.01 1031.65 1032.31 1032.75 1033.23 1033.68 1034.06 1034.55 1035.01 1035.38 1035.63 1036.05 1036.39 1036.66 1036.96 1037.19 1037.43 1037.49 1037.73 1038.00 1038.09 1037.70 1037.47 1037.31 1037.10 1036.89 1036.46 1036.16 1036.03 1035.82 1035.43 1035.08
1026.91 1027.74 1028.41 1028.86 1029.31 1029.95 1030.55 1031.22 1032.00 1032.51 1032.88 1033.42 1034.02 1034.21 1034.53 1035.17 1035.25 1035.86 1036.21 1036.31 1036.37 1036.53 1036.84 1036.98 1037.20 1037.61 1037.72 1037.24 1036.52 1036.09 1036.43 1036.54 1036.45 1036.08 1035.73 1035.58 1035.10 1034.65
1027.01 1027.36 1028.09 1028.66 1029.05 1029.50 1030.12 1030.73 1031.49 1032.24 1032.60 1032.89 1033.42 1033.94 1034.36 1034.62 1034.86 1035.22 1035.46 1035.64 1036.02 1036.28 1036.19 1036.29 1036.39 1036.59 1036.75 1036.69 1036.47 1035.98 1035.66 1036.21 1036.17 1035.69 1035.44 1035.09 1034.62 1034.12
1026.73 1027.11 1027.61 1028.15 1028.62 1028.97 1029.60 1030.38 1030.77 1031.37 1031.90 1032.43 1032.65 1033.05 1033.53 1034.06 1034.45 1034.59 1034.75 1034.70 1035.11 1035.35 1035.47 1035.37 1035.39 1035.32 1035.65 1036.12 1036.15 1035.77 1035.50 1035.34 1035.14 1035.11 1035.07 1034.63 1034.15 1033.71
1026.12 1026.62 1027.18 1027.70 1027.93 1028.51 1029.13 1029.66 1030.17 1030.52 1031.12 1031.78 1032.06 1032.33 1032.68 1033.08 1033.78 1033.92 1034.18 1034.28 1034.41 1034.44 1034.35 1034.30 1034.53 1035.01 1035.18 1035.19 1034.92 1034.92 1034.75 1034.64 1034.30 1034.04 1033.95 1033.78 1033.71 1032.84
1025.43 1026.03 1026.49 1027.05 1027.42 1027.93 1028.38 1028.93 1029.29 1029.69 1030.43 1030.85 1031.33 1031.61 1031.92 1032.32 1032.71 1032.73 1033.19 1033.66 1033.77 1033.66 1033.73 1033.76 1033.81 1033.96 1033.95 1034.08 1034.11 1034.14 1034.14 1034.05 1033.89 1033.66 1033.42 1032.95 1032.55 1032.04
Thickness
5583 5583 5584 5579 5578 5576 5574 5571 5566 5551 5545 5539 5534 5532 5531 5529 5527 5526 5522 5520 5518 5516 5513 5510 5507 5504 5500 5498 5494 5491 5488 5486 5483 5480 5477 5474 5471 5469
5574 5572 5573 5570 5567 5566 5565 5564 5563 5561 5545 5537 5532 5525 5522 5519 5518 5516 5512 5509 5507 5504 5502 5499 5495 5491 5488 5484 5482 5478 5475 5473 5470 5468 5463 5460 5457 5454
5565 5564 5561 5559 5556 5555 5555 5554 5552 5552 5537 5528 5522 5517 5513 5510 5507 5504 5501 5498 5495 5491 5489 5487 5482 5479 5475 5472 5469 5465 5461 5459 5456 5453 5449 5445 5443 5439
5556 5553 5550 5547 5544 5543 5542 5542 5542 5541 5534 5521 5513 5507 5504 5500 5498 5495 5491 5489 5483 5478 5475 5473 5470 5466 5463 5459 5456 5452 5447 5443 5442 5438 5435 5431 5426 5423
5541 5537 5538 5535 5531 5530 5530 5530 5527 5525 5524 5517 5507 5498 5494 5491 5487 5484 5480 5478 5473 5466 5463 5461 5456 5452 5449 5446 5442 5438 5434 5431 5425 5423 5418 5415 5409 5405
5532 5526 5523 5522 5518 5522 5518 5520 5514 5510 5507 5503 5496 5488 5482 5478 5474 5472 5468 5466 5461 5455 5452 5449 5445 5440 5436 5433 5427 5423 5420 5417 5410 5408 5403 5399 5394 5389
5517 5516 5511 5509 5506 5506 5508 5506 5503 5498 5493 5488 5482 5475 5471 5466 5465 5461 5456 5453 5448 5443 5441 5438 5434 5428 5423 5419 5413 5409 5406 5402 5397 5392 5386 5383 5379 5373
5506 5502 5499 5498 5495 5493 5491 5491 5490 5486 5482 5475 5471 5464 5459 5455 5454 5449 5445 5440 5434 5431 5428 5426 5421 5415 5411 5405 5400 5395 5391 5388 5382 5377 5372 5367 5362 5356
5493 5492 5488 5484 5482 5479 5475 5474 5473 5471 5467 5461 5457 5454 5449 5445 5441 5435 5431 5430 5425 5416 5415 5411 5405 5403 5396 5392 5386 5381 5377 5372 5367 5362 5356 5351 5345 5340
5480 5477 5474 5471 5469 5464 5463 5457 5452 5450 5447 5445 5442 5441 5438 5431 5428 5421 5416 5411 5406 5400 5397 5393 5390 5386 5381 5378 5372 5367 5362 5358 5353 5347 5341 5336 5331 5326
5462 5460 5458 5454 5451 5450 5448 5441 5435 5430 5429 5427 5426 5425 5418 5414 5411 5405 5398 5394 5390 5387 5379 5377 5375 5368 5366 5363 5359 5354 5349 5344 5338 5333 5327 5322 5318 5312
5446 5443 5439 5436 5433 5431 5428 5423 5419 5416 5414 5409 5406 5403 5400 5394 5391 5389 5385 5380 5376 5372 5361 5358 5356 5349 5347 5347 5344 5340 5336 5331 5325 5319 5314 5308 5302 5296
5432 5428 5424 5421 5418 5415 5408 5405 5403 5398 5396 5392 5387 5384 5379 5375 5371 5367 5364 5362 5359 5356 5346 5343 5338 5335 5331 5330 5326 5323 5319 5315 5310 5304 5299 5293 5287 5282
5419 5414 5408 5406 5402 5398 5396 5393 5389 5383 5379 5376 5371 5367 5364 5358 5354 5350 5346 5343 5341 5340 5334 5330 5324 5320 5315 5311 5307 5305 5304 5299 5295 5290 5285 5277 5271 5267
5404 5398 5394 5391 5386 5382 5377 5376 5373 5367 5362 5357 5354 5351 5349 5344 5338 5332 5329 5325 5323 5320 5318 5313 5308 5304 5301 5295 5294 5286 5285 5280 5276 5274 5270 5264 5258 5253
5387 5382 5379 5375 5370 5365 5361 5359 5355 5351 5350 5347 5343 5337 5332 5328 5324 5319 5315 5311 5308 5306 5302 5299 5295 5291 5284 5281 5278 5272 5266 5263 5263 5257 5255 5251 5244 5239
5370 5366 5363 5360 5355 5351 5347 5344 5340 5338 5336 5334 5330 5323 5318 5314 5310 5307 5304 5299 5294 5292 5290 5286 5280 5275 5271 5267 5261 5256 5253 5249 5247 5244 5241 5239 5234 5228
5355 5351 5350 5347 5344 5341 5337 5333 5328 5324 5320 5317 5314 5309 5305 5301 5299 5296 5291 5288 5283 5278 5274 5272 5267 5261 5257 5256 5251 5246 5240 5237 5236 5232 5227 5225 5224 5216
5343 5337 5334 5333 5333 5330 5326 5321 5313 5310 5308 5303 5298 5296 5295 5289 5289 5282 5277 5275 5273 5269 5262 5257 5251 5245 5242 5241 5243 5237 5228 5221 5219 5216 5213 5209 5210 5207
5325 5326 5322 5319 5319 5317 5314 5309 5303 5298 5296 5294 5289 5283 5279 5278 5276 5272 5268 5264 5258 5253 5250 5243 5238 5234 5231 5227 5225 5226 5216 5210 5204 5202 5200 5198 5196 5193
5312 5311 5309 5307 5306 5305 5301 5296 5294 5290 5286 5283 5281 5276 5271 5266 5263 5260 5257 5256 5249 5243 5239 5235 5227 5223 5220 5215 5212 5212 5207 5196 5191 5188 5186 5183 5182 5182
5301 5299 5297 5295 5296 5293 5289 5287 5284 5283 5279 5272 5269 5266 5262 5259 5252 5248 5244 5241 5236 5233 5230 5225 5218 5211 5206 5203 5204 5200 5196 5190 5183 5176 5171 5168 5167 5170
5292 5289 5289 5287 5286 5282 5280 5277 5276 5274 5268 5264 5259 5256 5252 5248 5243 5242 5235 5228 5224 5220 5215 5211 5207 5203 5202 5197 5192 5188 5183 5178 5172 5168 5164 5156 5155 5155